Location: Bukit Setapoh
(2.2500°N, 113.8000°E)
Time: 23:19:38
(UTC+00:00)

Ariane V96 H10-3 - Pass Details

Date: 25 July 2021
Orbit: 318 x 23392 km, 7.5° (Epoch: 18 September)

Event Time Altitude Azimuth Distance (km) Brightness Sun altitude
Rises 11:26:18 0° 260° (W) 7,992 9.8 -12.1°
Reaches altitude 10° 11:34:33 10° 257° (WSW) 4,499 8.3 -14.1°
Maximum altitude 11:43:05 57° 179° (S) 761 3.3 -16.1°
Enters shadow 11:44:20 33° 116° (ESE) 883 3.3 -16.4°
